time, Switch, Flow(0), Analog(2)
yyyy/mm/dd HH:MM:SS.fff, True=FILTERED|False=TOTAL, L/min, V
2023/06/30 07:00:02.968, True, 4.310, 0.139010
2023/06/30 07:00:03.464, True, 4.380, 0.139620
2023/06/30 07:00:03.968, True, 3.647, 0.140688
2023/06/30 07:00:04.472, True, 2.321, 0.140154
2023/06/30 07:00:04.976, True, 1.659, 0.139010
2023/06/30 07:00:05.472, True, 1.011, 0.137713
2023/06/30 07:00:05.976, True, 1.328, 0.140078
2023/06/30 07:00:06.472, True, 1.009, 0.138094
2023/06/30 07:00:06.976, True, 0.995, 0.139925
2023/06/30 07:00:07.480, True, 0.995, 0.138399
2023/06/30 07:00:07.976, True, 1.348, 0.137636
2023/06/30 07:00:08.480, True, 0.995, 0.138018
2023/06/30 07:00:08.984, True, 0.995, 0.138476
2023/06/30 07:00:09.480, True, 1.011, 0.139467
2023/06/30 07:00:09.984, True, 1.327, 0.138323
2023/06/30 07:00:10.488, True, 0.995, 0.138170
2023/06/30 07:00:10.984, True, 1.011, 0.137942
2023/06/30 07:00:11.488, True, 0.995, 0.137789
2023/06/30 07:00:11.992, True, 0.995, 0.138170
2023/06/30 07:00:12.496, True, 0.995, 0.138781
2023/06/30 07:00:12.992, True, 1.011, 0.137407
2023/06/30 07:00:13.496, True, 0.995, 0.138399
2023/06/30 07:00:13.000, True, 0.663, 0.138933
2023/06/30 07:00:14.496, True, 1.348, 0.137484
2023/06/30 07:00:15.000, True, 0.995, 0.140002
2023/06/30 07:00:15.496, True, 1.011, 0.139544
2023/06/30 07:00:15.000, True, 0.995, 0.137713
2023/06/30 07:00:16.504, True, 0.995, 0.137865
2023/06/30 07:00:17.008, True, 0.995, 0.137484
2023/06/30 07:00:17.504, True, 1.011, 0.137407
2023/06/30 07:00:18.008, True, 0.995, 0.139544
2023/06/30 07:00:18.504, True, 1.348, 0.139162
2023/06/30 07:00:19.008, True, 0.995, 0.137407
2023/06/30 07:00:19.512, True, 0.995, 0.137713
2023/06/30 07:00:20.008, True, 1.012, 0.139315
2023/06/30 07:00:20.512, True, 0.994, 0.139086
2023/06/30 07:00:21.016, True, 0.996, 0.140841
2023/06/30 07:00:21.512, True, 1.010, 0.135805
2023/06/30 07:00:22.016, True, 0.995, 0.137407
2023/06/30 07:00:22.520, True, 0.996, 0.140230
2023/06/30 07:00:23.016, True, 1.010, 0.138170
2023/06/30 07:00:23.520, True, 0.994, 0.138094
2023/06/30 07:00:24.024, True, 0.995, 0.138628
2023/06/30 07:00:24.528, True, 0.995, 0.137942
2023/06/30 07:00:25.024, True, 1.011, 0.138476
2023/06/30 07:00:25.528, True, 0.997, 0.137789
2023/06/30 07:00:26.024, True, 1.010, 0.141299
2023/06/30 07:00:26.528, True, 0.993, 0.135882
2023/06/30 07:00:27.032, True, 0.995, 0.137789
2023/06/30 07:00:27.528, True, 1.011, 0.137255
2023/06/30 07:00:28.032, True, 0.995, 0.138552
2023/06/30 07:00:28.536, True, 1.327, 0.138857
2023/06/30 07:00:29.032, True, 1.011, 0.139544
2023/06/30 07:00:29.536, True, 0.995, 0.137484
2023/06/30 07:00:30.040, True, 0.995, 0.137560
2023/06/30 07:00:30.536, True, 1.011, 0.138323
2023/06/30 07:00:31.040, True, 0.995, 0.138476
2023/06/30 07:00:31.544, True, 0.995, 0.140383
2023/06/30 07:00:32.040, True, 1.011, 0.138247
2023/06/30 07:00:32.544, True, 0.995, 0.138933
2023/06/30 07:00:33.048, True, 0.995, 0.139010
2023/06/30 07:00:33.552, True, 0.994, 0.140078
2023/06/30 07:00:34.048, True, 1.011, 0.138476
2023/06/30 07:00:34.552, True, 0.664, 0.139849
2023/06/30 07:00:35.056, True, 1.326, 0.137026
2023/06/30 07:00:35.552, True, 1.011, 0.138781
2023/06/30 07:00:36.056, True, 0.995, 0.137789
2023/06/30 07:00:36.560, True, 0.994, 0.138018
2023/06/30 07:00:37.056, True, 1.011, 0.138781
2023/06/30 07:00:37.560, True, 0.995, 0.138399
2023/06/30 07:00:38.064, True, 1.327, 0.139239
2023/06/30 07:00:38.560, True, 1.010, 0.138705
2023/06/30 07:00:39.064, True, 0.996, 0.138705
2023/06/30 07:00:39.568, True, 0.995, 0.138094
2023/06/30 07:00:40.064, True, 1.010, 0.138857
2023/06/30 07:00:40.568, True, 0.996, 0.138552
2023/06/30 07:00:41.072, True, 0.994, 0.139010
2023/06/30 07:00:41.568, True, 1.011, 0.138705
2023/06/30 07:00:42.072, True, 0.995, 0.138705
2023/06/30 07:00:42.576, True, 0.663, 0.141222
2023/06/30 07:00:43.072, True, 1.011, 0.137865
2023/06/30 07:00:43.576, True, 0.995, 0.139773
2023/06/30 07:00:44.080, True, 1.326, 0.135576
2023/06/30 07:00:44.576, True, 1.011, 0.136492
2023/06/30 07:00:45.080, True, 0.995, 0.138628
2023/06/30 07:00:45.584, True, 1.326, 0.140612
2023/06/30 07:00:46.080, True, 1.011, 0.138247
2023/06/30 07:00:46.584, True, 0.996, 0.137407
2023/06/30 07:00:47.088, True, 0.993, 0.138323
2023/06/30 07:00:47.584, True, 1.348, 0.136950
2023/06/30 07:00:48.088, True, 0.995, 0.139849
2023/06/30 07:00:48.592, True, 0.996, 0.138476
2023/06/30 07:00:49.088, True, 1.009, 0.138323
2023/06/30 07:00:49.592, True, 0.995, 0.135195
2023/06/30 07:00:50.096, True, 1.326, 0.137179
2023/06/30 07:00:50.600, True, 0.664, 0.139467
2023/06/30 07:00:51.096, True, 1.011, 0.140459
2023/06/30 07:00:51.600, True, 0.994, 0.140688
2023/06/30 07:00:52.104, True, 1.326, 0.136263
2023/06/30 07:00:52.600, True, 1.011, 0.140154
2023/06/30 07:00:53.104, True, 0.995, 0.137102
2023/06/30 07:00:53.608, True, 0.994, 0.139773
2023/06/30 07:00:54.104, True, 1.011, 0.140230
2023/06/30 07:00:54.608, True, 0.995, 0.139849
2023/06/30 07:00:55.112, True, 0.995, 0.138857
2023/06/30 07:00:55.608, True, 1.011, 0.138628
2023/06/30 07:00:56.112, True, 0.996, 0.140230
2023/06/30 07:00:56.616, True, 0.994, 0.138552
2023/06/30 07:00:57.112, True, 1.011, 0.140612
2023/06/30 07:00:57.616, True, 0.995, 0.138933
2023/06/30 07:00:58.120, True, 0.997, 0.139391
2023/06/30 07:00:58.616, True, 1.010, 0.140230
2023/06/30 07:00:59.120, True, 0.993, 0.140002
2023/06/30 07:00:59.624, True, 0.996, 0.137789
2023/06/30 07:01:00.119, True, 1.348, 0.142596
2023/06/30 07:01:00.624, True, 0.994, 0.140307
2023/06/30 07:01:01.128, True, 0.996, 0.140612
2023/06/30 07:01:01.624, True, 1.011, 0.139849
2023/06/30 07:01:02.128, True, 0.993, 0.141604
2023/06/30 07:01:02.624, True, 1.011, 0.140841
2023/06/30 07:01:03.128, True, 0.997, 0.137789
2023/06/30 07:01:03.632, True, 0.994, 0.140078
2023/06/30 07:01:04.136, True, 0.993, 0.139086
2023/06/30 07:01:04.632, True, 1.011, 0.141222
2023/06/30 07:01:05.136, True, 0.996, 0.140688
2023/06/30 07:01:05.640, True, 0.993, 0.140307
2023/06/30 07:01:06.136, True, 1.011, 0.141299
2023/06/30 07:01:06.640, True, 0.997, 0.142901
2023/06/30 07:01:07.144, True, 1.325, 0.142214
2023/06/30 07:01:07.648, True, 0.994, 0.143511
2023/06/30 07:01:08.144, True, 1.011, 0.141527
2023/06/30 07:01:08.648, True, 0.995, 0.143053
2023/06/30 07:01:09.152, True, 0.995, 0.141375
2023/06/30 07:01:09.648, True, 1.011, 0.142138
2023/06/30 07:01:10.152, True, 1.326, 0.141451
2023/06/30 07:01:10.656, True, 0.996, 0.142672
2023/06/30 07:01:11.152, True, 1.010, 0.144884
2023/06/30 07:01:11.656, True, 0.997, 0.142138
2023/06/30 07:01:12.152, True, 1.009, 0.142901
2023/06/30 07:01:12.656, True, 0.996, 0.145571
2023/06/30 07:01:13.160, True, 0.994, 0.143359
2023/06/30 07:01:13.656, True, 1.011, 0.143053
2023/06/30 07:01:14.160, True, 0.994, 0.143969
2023/06/30 07:01:14.664, True, 0.995, 0.144808
2023/06/30 07:01:15.160, True, 1.011, 0.145418
2023/06/30 07:01:15.664, True, 0.995, 0.144045
2023/06/30 07:01:16.168, True, 0.995, 0.144350
2023/06/30 07:01:16.664, True, 1.348, 0.145724
2023/06/30 07:01:17.168, True, 0.995, 0.145190
2023/06/30 07:01:17.672, True, 0.995, 0.144121
2023/06/30 07:01:18.168, True, 1.010, 0.144579
2023/06/30 07:01:18.672, True, 0.995, 0.145495
2023/06/30 07:01:19.176, True, 1.326, 0.144427
2023/06/30 07:01:19.672, True, 1.011, 0.144732
2023/06/30 07:01:20.176, True, 0.995, 0.146105
2023/06/30 07:01:20.680, True, 0.995, 0.145495
2023/06/30 07:01:21.176, True, 1.011, 0.144808
2023/06/30 07:01:21.680, True, 0.995, 0.146715
2023/06/30 07:01:22.176, True, 1.011, 0.147173
2023/06/30 07:01:22.680, True, 0.995, 0.146258
2023/06/30 07:01:23.184, True, 0.995, 0.147326
2023/06/30 07:01:23.680, True, 1.011, 0.145342
2023/06/30 07:01:24.184, True, 0.995, 0.148241
2023/06/30 07:01:24.688, True, 0.995, 0.146334
2023/06/30 07:01:25.184, True, 1.011, 0.145266
2023/06/30 07:01:25.688, True, 0.995, 0.148470
2023/06/30 07:01:26.192, True, 0.995, 0.146258
2023/06/30 07:01:26.688, True, 0.674, 0.144732
2023/06/30 07:01:27.192, True, 0.994, 0.147784
2023/06/30 07:01:27.696, True, 0.995, 0.146715
2023/06/30 07:01:28.192, True, 1.011, 0.145724
2023/06/30 07:01:28.696, True, 1.327, 0.145418
2023/06/30 07:01:29.200, True, 0.995, 0.146258
2023/06/30 07:01:29.696, True, 1.011, 0.145266
2023/06/30 07:01:30.200, True, 0.995, 0.145037
2023/06/30 07:01:30.696, True, 1.011, 0.148699
2023/06/30 07:01:31.200, True, 0.995, 0.146029
2023/06/30 07:01:31.704, True, 0.995, 0.146792
2023/06/30 07:01:32.200, True, 1.011, 0.144961
2023/06/30 07:01:32.704, True, 0.996, 0.144884
2023/06/30 07:01:33.208, True, 0.993, 0.147555
2023/06/30 07:01:33.704, True, 1.011, 0.147707
2023/06/30 07:01:34.208, True, 1.326, 0.148394
2023/06/30 07:01:34.712, True, 0.995, 0.147478
2023/06/30 07:01:35.208, True, 1.011, 0.147097
2023/06/30 07:01:35.712, True, 0.663, 0.147936
2023/06/30 07:01:36.216, True, 1.326, 0.146258
2023/06/30 07:01:36.712, True, 1.011, 0.145800
2023/06/30 07:01:37.216, True, 0.995, 0.147478
2023/06/30 07:01:37.712, True, 1.011, 0.147097
2023/06/30 07:01:38.216, True, 1.326, 0.147402
2023/06/30 07:01:38.720, True, 0.996, 0.146105
2023/06/30 07:01:39.224, True, 0.993, 0.147097
2023/06/30 07:01:39.720, True, 1.011, 0.147021
2023/06/30 07:01:40.224, True, 0.995, 0.147402
2023/06/30 07:01:40.728, True, 0.995, 0.148318
2023/06/30 07:01:41.224, True, 1.011, 0.149004
2023/06/30 07:01:41.728, True, 0.995, 0.147326
2023/06/30 07:01:42.224, True, 1.011, 0.148852
2023/06/30 07:01:42.728, True, 0.995, 0.149767
2023/06/30 07:01:43.232, True, 0.996, 0.145266
2023/06/30 07:01:43.728, True, 1.010, 0.145800
2023/06/30 07:01:44.232, True, 0.995, 0.145876
2023/06/30 07:01:44.736, True, 1.326, 0.147631
2023/06/30 07:01:45.232, True, 0.674, 0.146487
2023/06/30 07:01:45.736, True, 0.995, 0.148623
2023/06/30 07:01:46.240, True, 0.995, 0.145800
2023/06/30 07:01:46.736, True, 1.011, 0.147173
2023/06/30 07:01:47.240, True, 1.326, 0.147097
2023/06/30 07:01:47.744, True, 0.995, 0.150225
2023/06/30 07:01:48.240, True, 1.011, 0.146487
2023/06/30 07:01:48.744, True, 0.996, 0.146410
2023/06/30 07:01:49.248, True, 0.994, 0.145800
2023/06/30 07:01:49.744, True, 1.011, 0.146181
2023/06/30 07:01:50.248, True, 0.995, 0.144808
2023/06/30 07:01:50.752, True, 0.995, 0.146029
2023/06/30 07:01:51.248, True, 1.011, 0.146410
2023/06/30 07:01:51.752, True, 1.326, 0.146334
2023/06/30 07:01:52.256, True, 0.663, 0.149462
2023/06/30 07:01:52.752, True, 1.348, 0.146181
2023/06/30 07:01:53.256, True, 0.996, 0.146639
2023/06/30 07:01:53.760, True, 0.993, 0.146792
2023/06/30 07:01:54.256, True, 1.011, 0.145037
2023/06/30 07:01:54.760, True, 0.995, 0.148699
2023/06/30 07:01:55.264, True, 0.995, 0.144884
2023/06/30 07:01:55.760, True, 1.011, 0.146944
2023/06/30 07:01:56.264, True, 0.995, 0.146487
2023/06/30 07:01:56.768, True, 0.995, 0.149081
2023/06/30 07:01:57.264, True, 1.013, 0.148165
2023/06/30 07:01:57.768, True, 0.663, 0.145800
2023/06/30 07:01:58.272, True, 0.995, 0.147402
2023/06/30 07:01:58.768, True, 1.009, 0.147402
2023/06/30 07:01:59.272, True, 0.995, 0.146868
2023/06/30 07:01:59.768, True, 1.011, 0.145495
2023/06/30 07:02:00.272, True, 0.995, 0.145342
2023/06/30 07:02:00.776, True, 0.995, 0.148318
2023/06/30 07:02:01.272, True, 1.011, 0.148394
2023/06/30 07:02:01.776, True, 0.995, 0.146258
2023/06/30 07:02:02.280, True, 0.996, 0.147326
2023/06/30 07:02:02.776, True, 1.009, 0.147478
2023/06/30 07:02:03.280, True, 0.995, 0.148013
2023/06/30 07:02:03.784, True, 0.996, 0.147707
2023/06/30 07:02:04.280, True, 1.009, 0.147097
2023/06/30 07:02:04.784, True, 0.995, 0.148089
2023/06/30 07:02:05.280, True, 1.011, 0.147631
2023/06/30 07:02:05.784, True, 1.326, 0.145266
2023/06/30 07:02:06.288, True, 0.995, 0.147021
2023/06/30 07:02:06.784, True, 1.011, 0.148928
2023/06/30 07:02:07.288, True, 0.995, 0.147173
2023/06/30 07:02:07.792, True, 0.995, 0.147631
2023/06/30 07:02:08.288, True, 1.011, 0.147555
2023/06/30 07:02:08.792, True, 0.995, 0.145647
2023/06/30 07:02:09.296, True, 0.995, 0.148775
2023/06/30 07:02:09.801, True, 0.995, 0.148089
2023/06/30 07:02:10.296, True, 1.011, 0.148089
2023/06/30 07:02:10.800, True, 0.995, 0.147860
2023/06/30 07:02:11.296, True, 1.348, 0.147250
2023/06/30 07:02:11.800, True, 0.995, 0.148852
2023/06/30 07:02:12.304, True, 0.995, 0.147478
2023/06/30 07:02:12.800, True, 1.011, 0.144732
2023/06/30 07:02:13.304, True, 0.995, 0.147021
2023/06/30 07:02:13.808, True, 0.995, 0.147784
2023/06/30 07:02:14.312, True, 0.995, 0.147631
2023/06/30 07:02:14.808, True, 1.011, 0.149004
2023/06/30 07:02:15.312, True, 0.997, 0.147631
2023/06/30 07:02:15.816, True, 0.993, 0.147631
2023/06/30 07:02:16.312, True, 1.348, 0.146334
2023/06/30 07:02:16.816, True, 0.995, 0.145571
2023/06/30 07:02:17.320, True, 0.995, 0.148241
2023/06/30 07:02:17.824, True, 0.995, 0.147631
2023/06/30 07:02:18.320, True, 1.011, 0.145647
2023/06/30 07:02:18.824, True, 0.994, 0.146105
2023/06/30 07:02:19.320, True, 1.011, 0.148394
2023/06/30 07:02:19.824, True, 0.995, 0.148470
2023/06/30 07:02:20.328, True, 0.995, 0.146105
2023/06/30 07:02:20.824, True, 1.348, 0.146105
2023/06/30 07:02:21.328, True, 0.995, 0.148928
2023/06/30 07:02:21.832, True, 0.995, 0.148165
2023/06/30 07:02:22.328, True, 1.011, 0.147860
2023/06/30 07:02:22.832, True, 0.995, 0.146944
2023/06/30 07:02:23.328, True, 1.011, 0.147555
2023/06/30 07:02:23.832, True, 0.996, 0.147250
2023/06/30 07:02:24.336, True, 0.994, 0.148241
2023/06/30 07:02:24.832, True, 1.011, 0.146334
2023/06/30 07:02:25.336, True, 0.995, 0.145953
2023/06/30 07:02:25.840, True, 0.995, 0.147478
2023/06/30 07:02:26.336, True, 1.011, 0.148241
2023/06/30 07:02:26.840, True, 0.995, 0.146868
2023/06/30 07:02:27.344, True, 0.995, 0.147478
2023/06/30 07:02:27.840, True, 1.010, 0.147478
2023/06/30 07:02:28.344, True, 0.995, 0.147555
2023/06/30 07:02:28.848, True, 0.995, 0.147707
2023/06/30 07:02:29.352, True, 0.995, 0.147173
2023/06/30 07:02:29.848, True, 1.011, 0.146944
2023/06/30 07:02:30.352, True, 0.995, 0.145113
2023/06/30 07:02:30.847, True, 1.011, 0.147250
2023/06/30 07:02:31.352, True, 0.995, 0.145800
2023/06/30 07:02:31.856, True, 0.995, 0.145647
2023/06/30 07:02:32.352, True, 1.011, 0.148928
2023/06/30 07:02:32.856, True, 0.995, 0.145800
2023/06/30 07:02:33.360, True, 0.996, 0.146792
2023/06/30 07:02:33.864, True, 0.994, 0.148165
2023/06/30 07:02:34.360, True, 1.011, 0.148089
2023/06/30 07:02:34.864, True, 0.995, 0.148165
2023/06/30 07:02:35.360, True, 1.012, 0.145037
2023/06/30 07:02:35.864, True, 0.663, 0.146944
2023/06/30 07:02:36.368, True, 0.995, 0.145647
2023/06/30 07:02:36.872, True, 0.996, 0.147555
2023/06/30 07:02:37.368, True, 1.010, 0.147707
2023/06/30 07:02:37.872, True, 1.328, 0.147478
2023/06/30 07:02:38.376, True, 0.995, 0.148699
2023/06/30 07:02:38.872, True, 1.010, 0.146715
2023/06/30 07:02:39.376, True, 0.994, 0.144656
2023/06/30 07:02:39.872, True, 1.013, 0.147250
2023/06/30 07:02:40.376, True, 0.994, 0.146792
2023/06/30 07:02:40.880, True, 0.994, 0.147631
2023/06/30 07:02:41.376, True, 1.011, 0.147173
2023/06/30 07:02:41.880, True, 0.996, 0.145495
2023/06/30 07:02:42.384, True, 0.996, 0.147555
2023/06/30 07:02:42.880, True, 1.011, 0.146410
2023/06/30 07:02:43.384, True, 0.662, 0.147173
2023/06/30 07:02:43.888, True, 0.995, 0.147707
2023/06/30 07:02:44.384, True, 1.012, 0.148928
2023/06/30 07:02:44.888, True, 0.993, 0.146639
2023/06/30 07:02:45.392, True, 0.996, 0.146563
2023/06/30 07:02:45.896, True, 0.993, 0.145800
2023/06/30 07:02:46.392, True, 1.011, 0.145190
2023/06/30 07:02:46.896, True, 0.995, 0.147173
2023/06/30 07:02:47.400, True, 0.994, 0.146410
2023/06/30 07:02:47.896, True, 1.011, 0.145037
2023/06/30 07:02:48.400, True, 0.995, 0.147326
2023/06/30 07:02:48.904, True, 0.995, 0.145724
2023/06/30 07:02:49.400, True, 1.011, 0.146410
2023/06/30 07:02:49.904, True, 0.663, 0.145495
2023/06/30 07:02:50.408, True, 0.995, 0.145724
2023/06/30 07:02:50.904, True, 1.011, 0.144274
2023/06/30 07:02:51.408, True, 0.995, 0.145342
2023/06/30 07:02:51.912, True, 0.995, 0.145571
2023/06/30 07:02:52.408, True, 1.348, 0.145953
2023/06/30 07:02:52.912, True, 0.995, 0.147707
2023/06/30 07:02:53.416, True, 0.995, 0.148089
2023/06/30 07:02:53.912, True, 1.011, 0.147097
2023/06/30 07:02:54.416, True, 0.995, 0.147707
2023/06/30 07:02:54.920, True, 0.995, 0.148470
2023/06/30 07:02:55.416, True, 1.011, 0.146105
2023/06/30 07:02:55.920, True, 0.995, 0.147021
2023/06/30 07:02:56.424, True, 1.327, 0.145190
2023/06/30 07:02:56.920, True, 1.010, 0.146563
2023/06/30 07:02:57.424, True, 0.995, 0.146715
2023/06/30 07:02:57.928, True, 0.663, 0.144503
2023/06/30 07:02:58.424, True, 1.011, 0.146639
2023/06/30 07:02:58.928, True, 0.995, 0.144427
2023/06/30 07:02:59.432, True, 0.995, 0.146639
2023/06/30 07:02:59.928, True, 1.011, 0.146258
2023/06/30 07:03:00.432, True, 0.995, 0.145571
2023/06/30 07:03:00.936, True, 0.995, 0.145037
2023/06/30 07:03:01.432, True, 1.012, 0.145724
2023/06/30 07:03:01.936, True, 0.994, 0.147478
2023/06/30 07:03:02.432, True, 1.011, 0.147707
2023/06/30 07:03:02.936, True, 0.995, 0.145876
2023/06/30 07:03:03.440, True, 0.996, 0.146334
2023/06/30 07:03:03.936, True, 1.010, 0.145876
2023/06/30 07:03:04.440, True, 0.995, 0.145953
2023/06/30 07:03:04.944, True, 0.663, 0.146334
2023/06/30 07:03:05.440, True, 1.012, 0.148623
2023/06/30 07:03:05.944, True, 0.994, 0.145876
2023/06/30 07:03:06.448, True, 0.995, 0.144427
2023/06/30 07:03:06.944, True, 1.011, 0.144808
2023/06/30 07:03:07.448, True, 0.995, 0.145876
2023/06/30 07:03:07.944, True, 1.011, 0.147097
2023/06/30 07:03:08.448, True, 0.995, 0.147326
2023/06/30 07:03:08.952, True, 0.995, 0.145113
2023/06/30 07:03:09.448, True, 1.010, 0.147784
2023/06/30 07:03:09.953, True, 0.995, 0.145342
2023/06/30 07:03:10.456, True, 1.326, 0.146410
2023/06/30 07:03:10.952, True, 1.011, 0.144961
2023/06/30 07:03:11.456, True, 0.995, 0.146334
2023/06/30 07:03:11.960, True, 0.995, 0.145953
2023/06/30 07:03:12.456, True, 1.011, 0.142977
2023/06/30 07:03:12.960, True, 0.995, 0.146029
2023/06/30 07:03:13.464, True, 0.664, 0.146181
2023/06/30 07:03:13.960, True, 1.010, 0.148775
2023/06/30 07:03:14.464, True, 1.326, 0.147478
2023/06/30 07:03:14.968, True, 0.995, 0.145647
2023/06/30 07:03:15.465, True, 0.674, 0.146487
2023/06/30 07:03:15.968, True, 0.995, 0.146029
2023/06/30 07:03:16.472, True, 1.327, 0.145342
2023/06/30 07:03:16.968, True, 0.675, 0.145953
2023/06/30 07:03:17.472, True, 0.993, 0.144045
2023/06/30 07:03:17.976, True, 0.995, 0.144121
2023/06/30 07:03:18.473, True, 1.011, 0.144579
2023/06/30 07:03:18.977, True, 0.995, 0.147707
2023/06/30 07:03:19.480, True, 1.326, 0.148013
2023/06/30 07:03:19.977, True, 1.011, 0.145342
2023/06/30 07:03:20.480, True, 0.663, 0.145342
2023/06/30 07:03:20.984, True, 1.326, 0.144350
2023/06/30 07:03:21.480, True, 1.011, 0.146334
2023/06/30 07:03:21.985, True, 0.995, 0.147173
2023/06/30 07:03:22.488, True, 0.995, 0.145953
2023/06/30 07:03:22.984, True, 1.011, 0.146715
2023/06/30 07:03:23.488, True, 0.663, 0.145037
2023/06/30 07:03:23.992, True, 0.995, 0.144961
2023/06/30 07:03:24.489, True, 1.011, 0.145418
2023/06/30 07:03:24.993, True, 0.996, 0.147402
2023/06/30 07:03:25.488, True, 1.010, 0.144732
2023/06/30 07:03:25.992, True, 0.995, 0.144884
2023/06/30 07:03:26.497, True, 0.996, 0.146715
2023/06/30 07:03:26.992, True, 1.010, 0.148318
2023/06/30 07:03:27.496, True, 0.995, 0.146258
2023/06/30 07:03:28.000, True, 0.995, 0.144121
2023/06/30 07:03:28.504, True, 0.995, 0.146487
2023/06/30 07:03:29.000, True, 1.011, 0.145724
2023/06/30 07:03:29.505, True, 0.995, 0.143969
2023/06/30 07:03:30.009, True, 0.995, 0.146639
2023/06/30 07:03:30.505, True, 1.011, 0.147936
2023/06/30 07:03:31.009, True, 0.995, 0.145342
2023/06/30 07:03:31.512, True, 0.995, 0.146258
2023/06/30 07:03:32.009, True, 1.011, 0.145113
2023/06/30 07:03:32.512, True, 1.326, 0.146639
2023/06/30 07:03:33.017, True, 0.995, 0.146487
2023/06/30 07:03:33.513, True, 0.674, 0.145495
2023/06/30 07:03:34.017, True, 0.995, 0.144732
2023/06/30 07:03:34.520, True, 0.995, 0.144884
2023/06/30 07:03:35.017, True, 1.011, 0.145418
2023/06/30 07:03:35.520, True, 0.995, 0.145571
2023/06/30 07:03:36.024, True, 0.995, 0.146410
2023/06/30 07:03:36.520, True, 1.011, 0.145037
2023/06/30 07:03:37.024, True, 0.995, 0.146258
2023/06/30 07:03:37.528, True, 0.995, 0.144579
2023/06/30 07:03:38.025, True, 1.011, 0.146410
2023/06/30 07:03:38.529, True, 0.994, 0.145190
2023/06/30 07:03:39.025, True, 0.674, 0.144884
2023/06/30 07:03:39.528, True, 0.995, 0.145190
2023/06/30 07:03:40.033, True, 0.995, 0.144808
2023/06/30 07:03:40.528, True, 1.010, 0.144198
2023/06/30 07:03:41.033, True, 0.995, 0.143893
2023/06/30 07:03:41.537, True, 0.995, 0.145724
2023/06/30 07:03:42.032, True, 1.011, 0.143740
2023/06/30 07:03:42.536, True, 0.996, 0.144350
2023/06/30 07:03:43.041, True, 0.662, 0.144350
2023/06/30 07:03:43.536, True, 1.011, 0.143435
2023/06/30 07:03:44.041, True, 0.995, 0.144427
2023/06/30 07:03:44.545, True, 0.995, 0.147555
2023/06/30 07:03:45.041, True, 1.011, 0.145418
2023/06/30 07:03:45.545, True, 0.995, 0.146410
2023/06/30 07:03:46.048, True, 0.995, 0.145800
2023/06/30 07:03:46.545, True, 1.011, 0.145113
2023/06/30 07:03:47.049, True, 1.326, 0.145266
2023/06/30 07:03:47.553, True, 0.995, 0.145037
2023/06/30 07:03:48.049, True, 1.011, 0.145418
2023/06/30 07:03:48.553, True, 0.995, 0.145418
2023/06/30 07:03:49.057, True, 0.994, 0.146258
2023/06/30 07:03:49.553, True, 1.011, 0.145113
2023/06/30 07:03:50.057, True, 0.995, 0.144732
2023/06/30 07:03:50.560, True, 0.997, 0.145495
2023/06/30 07:03:51.057, True, 0.673, 0.142672
2023/06/30 07:03:51.561, True, 0.995, 0.145724
2023/06/30 07:03:52.065, True, 0.995, 0.146181
2023/06/30 07:03:52.561, True, 1.011, 0.144884
2023/06/30 07:03:53.065, True, 0.995, 0.145876
2023/06/30 07:03:53.568, True, 0.995, 0.146410
2023/06/30 07:03:54.065, True, 1.348, 0.143816
2023/06/30 07:03:54.569, True, 0.995, 0.143359
2023/06/30 07:03:55.073, True, 0.995, 0.145876
2023/06/30 07:03:55.576, True, 0.995, 0.146029
2023/06/30 07:03:56.073, True, 1.011, 0.145571
2023/06/30 07:03:56.576, True, 0.995, 0.142901
2023/06/30 07:03:57.081, True, 0.995, 0.144274
2023/06/30 07:03:57.577, True, 1.011, 0.144198
2023/06/30 07:03:58.081, True, 0.665, 0.145190
2023/06/30 07:03:58.577, True, 1.009, 0.143511
2023/06/30 07:03:59.081, True, 0.995, 0.143587
2023/06/30 07:03:59.585, True, 0.995, 0.145800
2023/06/30 07:04:00.088, True, 0.995, 0.142748
2023/06/30 07:04:00.584, True, 1.011, 0.145953
2023/06/30 07:04:01.089, True, 0.995, 0.143359
2023/06/30 07:04:01.592, True, 0.995, 0.145647
2023/06/30 07:04:02.096, True, 0.995, 0.143435
2023/06/30 07:04:02.592, True, 1.012, 0.143893
2023/06/30 07:04:03.096, True, 0.994, 0.142977
2023/06/30 07:04:03.600, True, 0.995, 0.145418
2023/06/30 07:04:04.105, True, 0.995, 0.145800
2023/06/30 07:04:04.600, True, 1.011, 0.144808
2023/06/30 07:04:05.104, True, 0.995, 0.143740
2023/06/30 07:04:05.608, True, 0.995, 0.145647
2023/06/30 07:04:06.105, True, 1.011, 0.144350
2023/06/30 07:04:06.608, True, 0.995, 0.144808
2023/06/30 07:04:07.104, True, 1.011, 0.144274
2023/06/30 07:04:07.609, True, 0.995, 0.143816
2023/06/30 07:04:08.112, True, 0.997, 0.145571
2023/06/30 07:04:08.616, True, 0.995, 0.144121
2023/06/30 07:04:09.112, True, 1.010, 0.143587
2023/06/30 07:04:09.617, True, 0.994, 0.144503
2023/06/30 07:04:10.121, True, 0.995, 0.142519
2023/06/30 07:04:10.616, True, 1.011, 0.143130
2023/06/30 07:04:11.121, True, 0.995, 0.144121
2023/06/30 07:04:11.624, True, 0.996, 0.144350
2023/06/30 07:04:12.120, True, 1.009, 0.143664